Zurück zum Katalog

COSMOS 886 DEB

AktivLEO
NORAD 9652·DEBRIS·🇷🇺 Russia

Gestartet Dec 27, 1976 von Baikonur Cosmodrome

Loading…

Nächste Überflüge (nächste 24 Stunden)

TLE

AktuellSource: Space-Track

Epoche: Sep 14, 2026, 18:28 UTC

1 09652U 76126J   26257.76962071  .00000811  00000-0  44786-3 0  9996
2 09652  65.8277 275.9923 0896727 295.9725  55.1605 12.96796103320487

Verfolge COSMOS 886 DEB in Echtzeit mit AllMySat

Download on the App Store